www.pogodaiklimat.ru

Погода и климат >> Архив погоды >> Таиланд >> Аэропорт Суварнабхуми


ПОГОДА в Аэропорту Суварнабхуми

  • Прогноз погоды в Аэропорту Суварнабхуми
  • Монитор погоды в Аэропорту Суварнабхуми

АРХИВ ПОГОДЫ в Аэропорту Суварнабхуми

Время (UTC), дата Ветер
(напр.,м/с)
 
Видим.   Явления Облачность Т
(С)
Тd
(С)
f
(%)
Тe
(С)
Тes
(С)
Комфортность P
(гПа)
Po
(гПа)
Тmin
(С)
Tmax
(С)
R
(мм)
R24
(мм)
S
(см)
03 13.09 СЗ 9 10 км 8/1 600 м
[Cu Sc Ac trans Cs]
+30.8 +22.3 61 +40 +41 очень
душно
1011.0 1010.3
06 13.09 З 7 10 км 8/3 600 м
[Cu Sc Ac trans Cs]
+33.3 +22.4 53 +43 +45 опасность
перегрева
1008.2 1007.5
09 13.09 З 7 10 км 8/5 600 м
[Cb cap Ac trans Cs]
+33.7 +21.8 50 +42 +43 опасность
перегрева
1005.6 1004.9
12 13.09 Ю 7 10 км гроза без осадков 9/4 600 м
[Cb cap Ac As Cs]
+29.4 +25.0 77 +42 +42 опасность
перегрева
1006.7 1006.0 +34.0 0.0
15 13.09 ЮВ 2 10 км гроза, ливневой дождь 9/4 600 м
[Cb cap Ac As Cs]
+26.4 +24.5 89 +37 +37 очень
душно
1009.2 1008.5 15
18 13.09 З 7 10 км {гроза, дождь} 9/1 600 м
[Cu Sc Ac trans Cs]
+26.5 +23.3 83 +36 +36 очень
душно
1007.4 1006.7 0.0
21 13.09 З 5 9000 м слаб. дождь 10/3 600 м
[Cu Sc Ac As Cs]
+26.1 +23.0 83 +35 +35 очень
душно
1006.9 1006.2 0.0
00 14.09 СЗ 5 8000 м {дождь} 9/3 600 м
[Cb cap Ac As Cs]
+25.8 +23.2 86 +35 +35 очень
душно
1008.2 1007.5 +25.5 0.2
03 14.09 СЗ 3 10 км {дождь} 9/3 600 м
[Cu Sc Ac As Cs]
+28.3 +23.5 75 +38 +43 очень
душно
1009.4 1008.7 0.4
06 14.09 Ю 2 10 км {дождь} 9/3 600 м
[Cu Sc Ac As Cs]
+29.8 +23.7 70 +41 +49 опасность
перегрева
1007.1 1006.4 0.4
09 14.09 Ю 5 10 км 8/3 600 м
[Cb cap Ac trans Cs]
+31.3 +24.8 68 +44 +46 опасность
перегрева
1005.1 1004.4
12 14.09 З 4 10 км слаб. дождь {гроза} 10/3 600 м
[Cb cap Ac As Cs]
+26.6 +25.3 93 +39 +39 очень
душно
1007.1 1006.4 +31.7 8
15 14.09 Ю 6 10 км слаб. дождь 10/4 600 м
[Cu Sc Ac As Cs]
+26.5 +24.8 90 +38 +38 очень
душно
1009.0 1008.3 2
18 14.09 С 3 10 км {дождь} 9/3 600 м
[Cu Sc Ac As Cs]
+26.0 +25.0 94 +37 +37 очень
душно
1007.4 1006.7 0.0
21 14.09 СВ 3 6000 м дымка 8/3 600 м
[Cu med, cong Ac lent Cs]
+25.1 +24.5 96 +35 +35 очень
душно
1006.9 1006.2
00 15.09 СВ 2 4000 м дымка 8/3 600 м
[Cu med, cong Ac trans Cs]
+25.5 +24.8 96 +36 +36 очень
душно
1008.0 1007.3 +25.0
03 15.09 СВ 3 10 км 6/3 600 м
[Cu Sc Ac lent Cs]
+29.6 +24.1 72 +41 +48 опасность
перегрева
1008.8 1008.1
06 15.09 В 3 10 км 6/4 600 м
[Cu Sc Ac trans Cs]
+32.2 +23.9 62 +44 +52 опасность
перегрева
1006.1 1005.4
09 15.09 Ю 8 10 км 6/4 600 м
[Cu Sc Ac und Cs]
+31.4 +25.0 69 +45 +46 опасность
перегрева
1004.0 1003.3
12 15.09 Ю 9 10 км 8/4 600 м
[Cb cap Ac und Cs]
+28.6 +24.7 79 +41 +41 опасность
перегрева
1005.5 1004.8 +33.4
15 15.09 Ю 5 10 км 8/4 600 м
[Cu Sc Ac und Cs]
+28.7 +25.3 82 +42 +42 опасность
перегрева
1008.1 1007.4
18 15.09 З 5 10 км в посл. час гроза {дождь} 9/3 300 м
[Cb cap Ac As Cs]
+27.1 +25.4 90 +39 +39 очень
душно
1007.7 1007.0 0.4
21 15.09 СЗ 4 10 км 8/3 600 м
[Cu Sc Ac As Cs]
+25.0 +22.3 85 +33 +33 очень
душно
1005.9 1005.2
00 16.09 С 3 10 км 6/1 600 м
[Cu Sc Ac und Cs]
+26.4 +24.1 87 +37 +37 очень
душно
1007.1 1006.4 +24.4
03 16.09 ЮВ 3 10 км 6/3 600 м
[Cu Sc Ac trans Cs]
+30.7 +23.6 66 +42 +48 опасность
перегрева
1009.0 1008.3
06 16.09 СВ 6 9000 м осадки на расстоянии 8/5 600 м
[Cb cap Ac As Cs]
+30.4 +23.6 67 +41 +44 опасность
перегрева
1005.7 1005.0
09 16.09 ЮЗ 4 7000 м в посл. час дождь {гроза} 8/4 600 м
[Cu Sc Ac trans Cs]
+27.6 +24.9 85 +39 +41 очень
душно
1004.5 1003.8 24
12 16.09 Ю 3 10 км {гроза, дождь} 9/3 600 м
[Cu Sc Ac As Cs]
+28.3 +25.2 83 +41 +41 опасность
перегрева
1005.5 1004.8 +33.3 24
15 16.09 ЮВ 3 10 км 8/3 600 м
[Cu Sc Ac trans Cs]
+28.0 +25.4 86 +41 +41 опасность
перегрева
1007.4 1006.7
18 16.09 В 3 10 км 9/1 600 м
[Cu Sc Ac trans Cs]
+27.4 +25.4 89 +40 +40 очень
душно
1007.3 1006.6
21 16.09 штиль 0 10 км 8/3 600 м
[Cu Sc Ac trans Cs]
+26.1 +25.1 94 +37 +37 очень
душно
1006.7 1006.0
00 17.09 С 2 6000 м дымка 8/3 600 м
[Cu Sc Ac trans Cs]
+27.2 +25.8 92 +40 +41 очень
душно
1008.2 1007.5 +24.0
03 17.09 С 5 9000 м дымка 8/4 600 м
[Cu Sc Ac trans Cs]
+30.5 +25.6 75 +45 +48 опасность
перегрева
1008.8 1008.1
06 17.09 В 5 10 км 8/4 600 м
[Cu Sc Ac trans Cs]
+33.5 +22.6 53 +43 +47 опасность
перегрева
1006.3 1005.7
09 17.09 Ю 11 10 км 8/3 600 м
[Cu Sc Ac trans Cs]
+32.2 +25.6 68 +47 +47 опасность
перегрева
1005.1 1004.4
12 17.09 Ю 7 10 км гроза, ливневой дождь 9/3 600 м
[Cb cap Ac As Cs]
+28.6 +25.2 82 +42 +42 опасность
перегрева
1007.6 1006.9 +33.9 0.2
15 17.09 ЮЗ 5 8000 м гроза, ливневой дождь 10/5 600 м
[Cb cap Ac As Cs]
+25.5 +23.9 91 +35 +35 очень
душно
1008.8 1008.1 17
18 17.09 С 3 9000 м слаб. дождь {гроза} 10/3 300 м
[Cu med, cong Ac As Cs]
+26.3 +25.1 93 +38 +38 очень
душно
1008.5 1007.8 1
21 17.09 ЮЗ 2 8000 м дымка 9/3 600 м
[Cu Sc Ac As Cs]
+25.4 +24.5 95 +36 +36 очень
душно
1007.8 1007.1
00 18.09 СВ 2 7000 м дымка 8/3 600 м
[Cu Sc Ac trans Cs]
+26.1 +23.3 85 +35 +36 очень
душно
1009.4 1008.7 +24.8
03 18.09 С 3 10 км 8/3 600 м
[Cu med, cong Ac trans Cs]
+30.0 +24.1 71 +42 +47 опасность
перегрева
1010.5 1009.8
06 18.09 В 7 10 км 8/3 600 м
[Cu med, cong Ac lent Cs]
+32.4 +23.5 59 +43 +46 опасность
перегрева
1007.8 1007.1
09 18.09 СВ 6 10 км 8/3 600 м
[Cb cap Ac trans Cs]
+34.1 +23.2 53 +44 +46 опасность
перегрева
1006.0 1005.3
12 18.09 В 3 10 км зарница 9/3 600 м
[Cb cap Ac trans Cs]
+31.7 +23.0 60 +42 +42 опасность
перегрева
1007.3 1006.6 +34.1
15 18.09 Ю 3 10 км {гроза} 9/3 600 м
[Cu Sc Ac As Cs]
+26.7 +23.9 85 +37 +37 очень
душно
1010.0 1009.2 0.2
18 18.09 З 3 10 км в посл. час гроза {дождь} 9/4 600 м
[Cb cap Ac As Cs]
+25.1 +23.6 91 +34 +34 очень
душно
1009.5 1008.8 0.4
21 18.09 В 2 8000 м слаб. дождь 10/3 600 м
[Cu Sc Ac As Cs]
+24.9 +23.9 94 +34 +34 очень
душно
1009.2 1008.5 3
00 19.09 В 3 9000 м в посл. час дождь 9/3 600 м
[Cu Sc Ac trans Cs]
+25.0 +23.8 93 +34 +34 очень
душно
1010.1 1009.4 +24.5 4
03 19.09 С 3 9000 м дымка 9/4 600 м
[Cu Sc Ac As Cs]
+28.2 +24.2 79 +39 +44 очень
душно
1011.6 1010.9
06 19.09 С 5 8000 м в посл. час дождь 9/5 600 м
[Cu Sc Ac trans Cs]
+29.5 +24.8 76 +42 +45 опасность
перегрева
1009.1 1008.4 0.0
09 19.09 СВ 4 10 км 9/4 600 м
[Cb calv Ac cuf Cs]
+30.7 +23.8 67 +42 +44 опасность
перегрева
1006.7 1006.0
12 19.09 ЮВ 5 8000 м слаб. дождь 10/6 600 м
[Cb cap Ac As Cs]
+29.2 +24.5 76 +41 +41 опасность
перегрева
1007.8 1007.1 +30.9 0.0
15 19.09 СЗ 3 10 км гроза, ливневой дождь 9/5 600 м
[Cb cap Ac As Cs]
+25.6 +23.2 87 +34 +34 очень
душно
1010.8 1010.0 0.2
18 19.09 ЮЗ 4 10 км {гроза, дождь} 9/4 600 м
[Cb cap Ac As Cs]
+25.0 +23.7 93 +34 +34 очень
душно
1010.5 1009.7 0.2
21 19.09 С 2 10 км 9/3 600 м
[Cu Sc Ac As Cs]
+25.2 +24.2 94 +35 +35 очень
душно
1007.9 1007.2
00 20.09 С 2 6000 м дымка 9/3 200 м
[Sc Ac cuf Cs]
+25.7 +24.7 94 +36 +37 очень
душно
1009.2 1008.5 +24.7

 

Местоположение метеостанции Аэропорт Суварнабхуми (Таиланд): широта 13.68 долгота 100.76 высота над уровнем моря 6 м.

В архиве по умолчанию представлена погода в Аэропорту Суварнабхуми за последнюю неделю. Архивные данные за месяц целиком и за предыдущие месяцы, начиная с января 2011 года, Вы можете получить, выбрав интересующий диапазон дат из раскрывающегося списка и нажав кнопку "Ввод!".


*Определитесь, кто Вы:
робот инопланетянин человек

Внимание! Время в таблицах - всемирное. Для получения местного времени необходимо прибавить поправку, которая равна 7 ч.

Смотрите также архив погоды в соседних городах и на ближайших метеорологических станциях:

Погода в Бангна Агромете (Таиланд) (15 км)
Погода в Самутрудкан Агромете (Таиланд) (18 км)
Погода в Бангкоке 2 (Таиланд) (21 км)
Погода в Бангкоке (Таиланд) (22 км)
Погода в Дон Муанг (Таиланд) (32 км)
Погода в Бангкок Пилот (Таиланд) (38 км)
Погода в Чонбури (Таиланд) (42 км)
Погода в Ратбури (Таиланд) (42 км)
Погода в Патхумтхани (Таиланд) (49 км)
Погода на Ко Сичан (Таиланд) (57 км)

Пояснения к столбцам:

Ветер - указаны скорость ветра в м/с - средняя за 10 мин, порывы в срок и между сроками (в фигурных скобках) и направление, откуда дует ветер: С - северный, СВ - северо-восточный, В - восточный, ЮВ - юго-восточный, Ю - южный, ЮЗ - юго-западный, З - западный, СЗ - северо-западный.
Видимость - горизонтальная дальность видимости в метрах или километрах. При видимости от 1 до 10 км при отсутствии осадков обычно наблюдается дымка, при ухудшении видимости до 1 км и менее - туман. В сухую погоду видимость может ухудшаться дымом, пылью или мглою.
Явления - указаны атмосферные явления, наблюдавшиеся в срок или в последний час перед сроком; фигурными скобками обозначены явления, наблюдавшиеся между сроками (за 1-3 часа до срока); квадратными скобками обозначены град или гололедные отложения с указанием их диаметра в мм.
Облачность - указаны через наклонную черту общая и нижняя облачность в баллах и высота нижней границы облаков в метрах; квадратными скобками обозначены формы облаков: Ci - перистые, Cs - перисто-слоистые, Cc - перисто-кучевые, Ac - высококучевые, As - высокослоистые, Sc - слоисто-кучевые, Ns - слоисто-дождевые, Cu - кучевые, Cb - кучево-дождевые. Подробнее классификацию облаков см. в Атласе облаков (PDF).
T - Температура воздуха - температура, измеренная на высоте 2 м над землей.
Td - Температура точки росы - температура, при понижении до которой содержащийся в воздухе водяной пар достигнет насыщения.
f - Относительная влажность воздуха - влажноcть воздуха, измеренная на высоте 2 м над землей.
Te - Эффективная температура - температура, которую ощущает одетый по сезону человек в тени. Характеристика душности погоды. При расчете учитывается влияние влажности воздуха и скорости ветра на теплоощущения человека.
Tes - Эффективная температура на солнце - температура, которую ощущает человек, с поправкой на солнечный нагрев. Характеристика знойности погоды. Зависит от высоты солнца над горизонтом, облачности и скорости ветра. Ночью, в пасмурную погоду, а также при ветре 12 м/с и более поправка равна нулю.
P - Атмосферное давление - приведенное к уровню моря атмосферное давление.
Po - Атмосферное давление - измеренное на уровне метеостанции атмосферное давление.
Tmin - Минимальная температура - минимум температуры воздуха на высоте 2 м над землей.
Tmax - Максимальная температура - максимум температуры воздуха на высоте 2 м над землей.
R - Количество осадков - Количество выпавших осадков за период времени, мм. При наведении курсора мыши на число - период времени, за который выпало указанное количество осадков.
R24 - Количество осадков - Количество выпавших осадков за 24 часа, мм.
S - Снежный покров - Высота снежного покрова, см. При наведении курсора мыши на число - состояние снежного покрова и степень покрытия местности в баллах.